"startDT [UTC]","vpos","CH4 [ppm]","stdev(CH4) [ppm]","CO2 [ppm]","stdev(CO2) [ppm]","H2O_reported [%]","stdev(H2O_reported)","CavityPressure [torr]","CavityTemp [C]","OutletValve","CH4_dry [ppm]","CO2_dry [ppm]","DasTemp [C]","EtalonTemp [C]","WarmBoxTemp [C]","MPVPosition","T_ECpre [C]","T_EC1 [C]","T_EC2 [C]","p_inlet [hPa]","p_in [hPa]","p_out [hPa]","T_inlet [C]","RH_inlet [%]","dwpt_inlet [C]","T_vent [C]","RH_vent [%]","dwpt_vent [C]","flow_vent [l min-1]","flow_inlet [l min-1]","dwpt_sample [C]","T_room [C]"
2015-06-28 00:00:00,3.0,1.87038,0.00680,397.123,1.743,0.2006,0.2896,139.801,45.000,31132.55614,1.87483,398.164,33.313,45.068,45.000,0.00,0.10,-272.72,-272.77,-6,472,-5,23.6,22.7,1.1,23.3,23.4,1.3,5.73,1.88,0.1,27.7
2015-06-28 00:01:00,3.0,1.87571,0.00063,396.879,0.034,0.0373,0.0018,139.995,45.000,30910.71459,1.87639,397.061,33.312,45.068,45.000,0.00,0.10,-272.72,-272.78,-7,472,-5,23.6,22.5,0.9,23.4,23.0,1.0,5.73,1.92,0.1,27.7
2015-06-28 00:02:00,3.0,1.87612,0.00033,397.059,0.102,0.0330,0.0025,139.998,45.000,30857.39357,1.87671,397.211,33.315,45.068,45.000,0.00,0.10,-272.72,-272.78,-7,472,-5,23.6,22.6,1.0,23.3,23.2,1.1,5.73,1.92,0.1,27.6
2015-06-28 00:03:00,3.0,1.87592,0.00044,397.292,0.063,0.0263,0.0019,139.997,45.000,30809.63246,1.87640,397.412,33.315,45.068,45.000,0.00,0.10,-272.71,-272.78,-7,472,-5,23.6,22.7,1.1,23.4,23.2,1.2,5.73,1.91,0.1,27.7
2015-06-28 00:04:00,3.0,1.87609,0.00040,397.376,0.034,0.0206,0.0022,140.000,45.000,30776.25877,1.87648,397.474,33.315,45.068,45.000,0.00,0.10,-272.72,-272.78,-7,473,-5,23.6,22.6,1.0,23.3,23.2,1.1,5.73,1.90,0.1,27.7
2015-06-28 00:05:00,3.0,1.87606,0.00035,397.437,0.020,0.0162,0.0024,139.998,45.000,30747.00086,1.87636,397.516,33.316,45.068,45.000,0.00,0.10,-272.72,-272.79,-6,473,-5,23.6,22.7,1.0,23.4,23.2,1.2,5.73,1.89,0.1,27.7
2015-06-28 00:06:00,3.0,1.87611,0.00057,397.459,0.036,0.0126,0.0014,140.000,45.000,30722.38511,1.87637,397.517,33.322,45.068,45.000,0.00,0.10,-272.72,-272.78,-6,473,-5,23.6,22.7,1.1,23.4,23.3,1.2,5.73,1.87,0.1,27.7
2015-06-28 00:07:00,3.0,1.87620,0.00032,397.470,0.031,0.0107,0.0022,139.995,45.000,30702.14905,1.87640,397.522,33.327,45.068,45.000,0.00,0.10,-272.71,-272.77,-6,473,-5,23.6,22.5,1.0,23.4,23.1,1.2,5.73,1.85,0.1,27.7
2015-06-28 00:08:00,3.0,1.87582,0.00051,397.494,0.030,0.0091,0.0015,139.999,45.000,30686.88998,1.87598,397.537,33.326,45.068,45.000,0.00,0.10,-272.72,-272.79,-7,474,-5,23.6,23.1,1.3,23.4,23.6,1.4,5.73,1.86,0.1,27.7
2015-06-28 00:09:00,3.0,1.87597,0.00050,397.503,0.025,0.0067,0.0019,140.000,45.000,30674.76711,1.87607,397.536,33.313,45.068,45.000,0.00,0.10,-272.72,-272.79,-7,474,-5,23.6,22.7,1.1,23.4,23.4,1.3,5.73,1.87,0.1,27.7
2015-06-28 00:10:00,3.0,1.87587,0.00041,397.520,0.024,0.0069,0.0015,140.001,45.000,30664.26888,1.87600,397.552,33.308,45.068,45.000,0.00,0.10,-272.71,-272.78,-7,474,-5,23.6,22.6,1.0,23.4,23.1,1.1,5.73,1.89,0.1,27.6
2015-06-28 00:11:00,3.0,1.87606,0.00036,397.532,0.040,0.0063,0.0018,139.999,45.000,30653.93922,1.87617,397.561,33.290,45.068,45.000,0.00,0.10,-272.72,-272.78,-6,475,-5,23.7,22.6,1.0,23.4,23.1,1.1,5.73,1.91,0.1,27.7
2015-06-28 00:12:00,3.0,1.87613,0.00034,397.538,0.045,0.0061,0.0021,140.003,45.000,30644.58362,1.87624,397.569,33.307,45.068,45.000,0.00,0.10,-272.72,-272.78,-6,475,-5,23.6,22.8,1.2,23.4,23.4,1.3,5.73,1.91,0.1,27.7
2015-06-28 00:13:00,3.0,1.87607,0.00025,397.539,0.032,0.0050,0.0015,140.000,45.000,30638.13046,1.87619,397.563,33.311,45.068,45.000,0.00,0.10,-272.72,-272.77,-6,475,-5,23.6,22.7,1.1,23.4,23.3,1.2,5.73,1.91,0.1,27.7
2015-06-28 00:14:00,3.0,1.87635,0.00040,397.533,0.040,0.0053,0.0016,139.998,45.000,30631.98342,1.87641,397.559,33.313,45.068,45.000,0.00,0.10,-272.72,-272.77,-6,476,-5,23.7,22.7,1.1,23.4,23.2,1.2,5.73,1.91,0.1,27.7
2015-06-28 00:15:00,3.0,1.87625,0.00061,397.543,0.026,0.0046,0.0014,140.003,45.000,30632.09035,1.87634,397.565,33.314,45.068,45.000,0.00,0.10,-272.72,-272.78,-7,476,-5,23.7,22.8,1.2,23.4,23.4,1.4,5.73,1.90,0.1,27.7
2015-06-28 00:16:00,3.0,1.87632,0.00042,397.540,0.029,0.0041,0.0016,140.000,45.000,30627.94613,1.87640,397.560,33.312,45.068,45.000,0.00,0.10,-272.71,-272.78,-7,476,-5,23.7,22.9,1.2,23.4,23.4,1.4,5.73,1.88,0.1,27.6
2015-06-28 00:17:00,3.0,1.87640,0.00027,397.541,0.029,0.0033,0.0027,140.005,45.000,30627.21923,1.87644,397.555,33.305,45.068,45.000,0.00,0.10,-272.71,-272.78,-7,477,-5,23.7,23.0,1.3,23.5,23.6,1.5,5.73,1.87,0.1,27.6
2015-06-28 00:18:00,3.0,1.87651,0.00036,397.542,0.029,0.0037,0.0013,140.000,45.000,30623.53497,1.87660,397.561,33.289,45.068,45.000,0.00,0.10,-272.72,-272.78,-7,477,-5,23.7,22.4,0.9,23.5,23.1,1.2,5.73,1.86,0.1,27.6
2015-06-28 00:19:00,3.0,1.87641,0.00040,397.549,0.031,0.0024,0.0021,139.998,45.000,30622.31274,1.87643,397.561,33.310,45.068,45.000,0.00,0.10,-272.72,-272.78,-6,477,-5,23.7,22.0,0.7,23.5,22.7,0.9,5.73,1.86,0.1,27.7
2015-06-28 00:20:00,0.0,1.88176,0.00311,395.101,1.449,0.6916,0.2654,140.293,45.000,33673.48041,1.89411,398.395,33.310,45.068,45.000,0.00,0.10,-272.71,-272.78,-7,984,-5,23.7,22.0,0.7,23.5,22.7,0.9,5.73,1.85,0.1,27.7
2015-06-28 00:21:00,0.0,1.87988,0.00042,394.180,0.025,0.8328,0.0064,140.006,45.000,33889.46284,1.89573,398.237,33.313,45.068,45.000,0.00,0.10,-272.72,-272.78,-7,985,-5,23.7,22.2,0.9,23.4,22.8,1.0,5.73,1.90,0.1,27.7
2015-06-28 00:22:00,0.0,1.87956,0.00048,394.117,0.046,0.8329,0.0024,140.002,45.000,33950.80662,1.89542,398.171,33.309,45.068,45.000,0.00,0.10,-272.72,-272.79,-7,986,-5,23.7,22.1,0.8,23.5,22.8,1.0,5.73,1.91,0.1,27.6
2015-06-28 00:23:00,0.0,1.87932,0.00042,394.173,0.035,0.8309,0.0023,140.004,45.000,33996.71796,1.89508,398.216,33.308,45.068,45.000,0.00,0.10,-272.72,-272.78,-7,986,-5,23.7,21.9,0.7,23.5,22.6,0.9,5.73,1.90,0.1,27.7
2015-06-28 00:24:00,0.0,1.87903,0.00053,394.113,0.027,0.8332,0.0050,140.003,45.000,34035.06422,1.89487,398.169,33.306,45.068,45.000,0.00,0.10,-272.71,-272.78,-7,986,-5,23.7,22.0,0.7,23.5,22.6,0.9,5.73,1.91,0.1,27.7
2015-06-28 00:25:00,0.0,1.87905,0.00055,394.067,0.059,0.8414,0.0055,139.998,45.000,34067.20434,1.89498,398.163,33.307,45.068,45.000,0.00,0.10,-272.72,-272.78,-8,986,-5,23.7,22.2,0.8,23.5,22.8,1.0,5.73,1.91,0.1,27.7
2015-06-28 00:26:00,0.0,1.87962,0.00045,394.176,0.032,0.8281,0.0030,140.003,45.000,34091.72034,1.89534,398.205,33.313,45.068,45.000,0.00,0.10,-272.72,-272.78,-7,986,-5,23.7,21.8,0.6,23.5,22.5,0.8,5.73,1.91,0.2,27.7
2015-06-28 00:27:00,0.0,1.87918,0.00042,394.136,0.061,0.8286,0.0041,140.002,45.000,34115.82215,1.89496,398.171,33.313,45.068,45.000,0.00,0.10,-272.72,-272.77,-7,986,-5,23.8,21.8,0.7,23.5,22.4,0.8,5.73,1.92,0.2,27.7
2015-06-28 00:28:00,0.0,1.87873,0.00042,393.983,0.074,0.8439,0.0039,140.000,45.000,34134.79026,1.89475,398.090,33.313,45.068,45.000,0.00,0.10,-272.72,-272.78,-7,986,-5,23.7,22.2,0.9,23.5,22.8,1.0,5.73,1.92,0.1,27.7
2015-06-28 00:29:00,0.0,1.87881,0.00032,394.074,0.114,0.8429,0.0128,139.999,45.000,34149.54027,1.89480,398.176,33.324,45.068,45.000,0.00,0.10,-272.73,-272.78,-7,986,-5,23.7,22.1,0.8,23.5,22.9,1.1,5.73,1.92,0.2,27.7
2015-06-28 00:30:00,0.0,1.87907,0.00057,394.154,0.062,0.8255,0.0045,140.005,45.000,34164.52155,1.89478,398.173,33.322,45.068,45.000,0.00,0.10,-272.71,-272.78,-7,986,-5,23.7,21.7,0.5,23.5,22.3,0.7,5.73,1.92,0.2,27.7
2015-06-28 00:31:00,0.0,1.87868,0.00045,393.979,0.048,0.8462,0.0051,140.001,45.000,34173.70531,1.89469,398.099,33.321,45.068,45.000,0.00,0.32,-270.76,-270.95,-7,987,-5,23.8,22.2,0.9,23.5,22.8,1.0,5.43,2.08,-3.3,27.7
2015-06-28 00:32:00,0.0,1.87862,0.00053,393.887,0.064,0.8570,0.0051,140.008,45.000,34183.15310,1.89488,398.057,33.313,45.068,45.000,0.00,0.10,-272.72,-272.78,-7,987,-5,23.7,22.5,1.1,23.5,23.1,1.2,5.73,1.92,0.2,27.7
2015-06-28 00:33:00,0.0,1.87908,0.00042,393.964,0.030,0.8495,0.0021,139.997,45.000,34188.15371,1.89527,398.099,33.313,45.068,45.000,0.00,0.10,-272.72,-272.77,-7,987,-5,23.8,22.3,1.0,23.5,23.0,1.2,5.73,1.92,0.2,27.8
2015-06-28 00:34:00,0.0,1.87891,0.00046,393.929,0.055,0.8500,0.0018,140.000,45.000,34198.74471,1.89502,398.063,33.313,45.068,45.000,0.00,0.10,-272.72,-272.78,-7,986,-5,23.8,22.3,0.9,23.5,22.9,1.1,5.73,1.92,0.2,27.7
2015-06-28 00:35:00,0.0,1.87899,0.00043,393.986,0.047,0.8439,0.0034,139.998,45.000,34205.72498,1.89502,398.095,33.326,45.068,45.000,0.00,0.10,-272.72,-272.79,-7,986,-5,23.8,22.1,0.9,23.5,22.8,1.1,5.73,1.93,0.2,27.7
2015-06-28 00:36:00,0.0,1.87908,0.00031,394.002,0.117,0.8446,0.0056,139.999,45.000,34210.35643,1.89512,398.112,33.364,45.068,45.000,0.00,0.10,-272.73,-272.78,-7,987,-5,23.7,22.1,0.8,23.5,22.8,1.1,5.73,1.91,0.2,27.7
2015-06-28 00:37:00,0.0,1.87902,0.00036,394.013,0.066,0.8379,0.0063,140.002,45.000,34219.00906,1.89494,398.094,33.375,45.068,45.000,0.00,0.10,-272.71,-272.77,-7,987,-5,23.7,22.0,0.8,23.5,22.6,0.9,5.73,1.92,0.2,27.7
2015-06-28 00:38:00,0.0,1.87891,0.00043,393.830,0.043,0.8526,0.0060,140.002,45.000,34221.62324,1.89511,397.977,33.375,45.068,45.000,0.00,0.10,-272.72,-272.78,-7,987,-5,23.7,22.4,0.9,23.5,22.9,1.1,5.73,1.91,0.2,27.8
2015-06-28 00:39:00,0.0,1.87842,0.00045,394.028,0.084,0.8473,0.0077,140.006,45.000,34229.53265,1.89453,398.151,33.375,45.068,45.000,0.00,0.10,-272.73,-272.78,-7,987,-5,23.7,22.1,0.8,23.5,22.9,1.1,5.73,1.91,0.2,27.8
2015-06-28 00:40:00,0.0,1.87885,0.00040,394.108,0.067,0.8321,0.0059,140.004,45.000,34229.51795,1.89465,398.158,33.375,45.068,45.000,0.00,0.10,-272.72,-272.78,-7,987,-5,23.7,21.8,0.6,23.5,22.4,0.8,5.73,1.91,0.2,27.8
2015-06-28 00:41:00,0.0,1.87881,0.00036,394.025,0.060,0.8410,0.0059,140.003,45.000,34232.59707,1.89474,398.117,33.375,45.068,45.000,0.00,0.10,-272.72,-272.77,-7,987,-5,23.7,22.0,0.7,23.5,22.6,0.9,5.73,1.90,0.2,27.8
2015-06-28 00:42:00,0.0,1.87853,0.00036,393.980,0.057,0.8485,0.0046,140.000,45.000,34233.13270,1.89466,398.114,33.375,45.068,45.000,0.00,0.10,-272.72,-272.78,-7,987,-5,23.8,22.2,0.9,23.5,22.9,1.1,5.73,1.90,0.2,27.8
2015-06-28 00:43:00,0.0,1.87853,0.00042,394.075,0.072,0.8386,0.0038,140.005,45.000,34235.35251,1.89448,398.154,33.375,45.068,45.000,0.00,0.10,-272.71,-272.78,-7,986,-5,23.8,22.0,0.7,23.5,22.6,0.9,5.73,1.90,0.2,27.8
2015-06-28 00:44:00,0.0,1.87878,0.00042,394.226,0.043,0.8266,0.0036,139.999,45.000,34236.16730,1.89442,398.250,33.375,45.068,45.000,0.00,0.10,-272.71,-272.77,-7,987,-5,23.8,21.6,0.5,23.5,22.3,0.7,5.73,1.90,0.2,27.8
2015-06-28 00:45:00,0.0,1.87925,0.00041,394.198,0.042,0.8281,0.0064,139.994,45.000,34234.23486,1.89497,398.227,33.375,45.068,45.000,0.00,0.10,-272.72,-272.78,-7,987,-5,23.7,21.6,0.5,23.5,22.2,0.7,5.73,1.90,0.2,27.8
2015-06-28 00:46:00,0.0,1.87885,0.00045,394.110,0.100,0.8320,0.0110,140.001,45.000,34236.74564,1.89465,398.158,33.375,45.068,45.000,0.00,0.10,-272.72,-272.79,-7,987,-5,23.8,21.8,0.6,23.5,22.3,0.7,5.73,1.90,0.2,27.8
2015-06-28 00:47:00,0.0,1.87949,0.00035,394.203,0.055,0.8261,0.0076,140.002,45.000,34237.15589,1.89519,398.227,33.383,45.068,45.000,0.00,0.10,-272.71,-272.78,-7,987,-5,23.8,21.6,0.5,23.5,22.3,0.8,5.73,1.90,0.2,27.8
2015-06-28 00:48:00,0.0,1.87900,0.00032,393.906,0.081,0.8505,0.0111,140.003,45.000,34239.67371,1.89514,398.045,33.415,45.068,45.000,0.00,0.10,-272.72,-272.78,-7,987,-5,23.8,22.3,0.9,23.5,22.7,1.0,5.73,1.90,0.2,27.9
2015-06-28 00:49:00,0.0,1.87914,0.00049,394.122,0.070,0.8375,0.0110,139.998,45.000,34237.49633,1.89504,398.200,33.425,45.068,45.000,0.00,0.10,-272.72,-272.78,-7,987,-5,23.8,21.9,0.7,23.5,22.7,1.0,5.73,1.90,0.2,27.9
2015-06-28 00:50:00,0.0,1.87923,0.00052,394.005,0.108,0.8453,0.0079,140.002,45.000,34240.32746,1.89532,398.117,33.438,45.068,45.000,0.00,0.10,-272.72,-272.78,-7,987,-5,23.8,22.0,0.8,23.6,22.6,1.0,5.73,1.90,0.2,27.9
2015-06-28 00:51:00,0.0,1.87907,0.00025,394.223,0.065,0.8288,0.0057,140.003,45.000,34240.72217,1.89478,398.254,33.439,45.068,45.000,0.00,0.10,-272.72,-272.77,-7,987,-5,23.8,21.6,0.5,23.5,22.3,0.7,5.73,1.91,0.2,27.8
2015-06-28 00:52:00,0.0,1.87887,0.00041,394.156,0.066,0.8369,0.0058,140.001,45.000,34243.20941,1.89476,398.230,33.437,45.068,45.000,0.00,0.10,-272.73,-272.78,-7,987,-5,23.8,21.8,0.7,23.5,22.5,0.9,5.73,1.90,0.2,27.8
2015-06-28 00:53:00,0.0,1.87936,0.00048,394.283,0.065,0.8254,0.0038,139.996,45.000,34240.32162,1.89500,398.297,33.437,45.068,45.000,0.00,0.10,-272.72,-272.78,-7,987,-5,23.8,21.6,0.5,23.6,22.2,0.7,5.73,1.91,0.2,27.8
2015-06-28 00:54:00,0.0,1.87958,0.00066,394.567,0.091,0.7971,0.0111,139.999,45.000,34241.23902,1.89475,398.450,33.434,45.068,45.000,0.00,0.10,-272.71,-272.77,-7,987,-5,23.7,20.8,-0.1,23.6,21.5,0.3,5.73,1.91,0.2,27.8
2015-06-28 00:55:00,0.0,1.87902,0.00053,394.328,0.055,0.8192,0.0073,140.003,45.000,34246.22610,1.89452,398.313,33.403,45.068,45.000,0.00,0.10,-272.72,-272.79,-8,987,-5,23.7,21.3,0.3,23.5,21.9,0.5,5.73,1.91,0.2,27.8
2015-06-28 00:56:00,0.0,1.87938,0.00038,394.314,0.058,0.8166,0.0058,140.001,45.000,34243.12979,1.89487,398.287,33.396,45.068,45.000,0.00,0.10,-272.72,-272.79,-7,987,-5,23.8,21.3,0.3,23.5,22.0,0.6,5.73,1.91,0.2,27.8
2015-06-28 00:57:00,0.0,1.87938,0.00048,394.325,0.078,0.8185,0.0090,140.000,45.000,34243.51463,1.89493,398.311,33.381,45.068,45.000,0.00,0.10,-272.71,-272.77,-8,987,-5,23.8,21.4,0.4,23.5,22.0,0.6,5.73,1.92,0.3,27.8
2015-06-28 00:58:00,0.0,1.87927,0.00028,394.271,0.033,0.8273,0.0057,140.000,45.000,34244.68516,1.89499,398.297,33.375,45.068,45.000,0.00,0.10,-272.71,-272.78,-7,987,-5,23.8,21.5,0.5,23.5,22.2,0.7,5.73,1.92,0.3,27.8
2015-06-28 00:59:00,0.0,1.87924,0.00046,394.253,0.035,0.8324,0.0045,140.001,45.000,34243.79003,1.89503,398.304,33.375,45.068,45.001,0.00,0.10,-272.72,-272.79,-7,987,-5,23.8,21.7,0.6,23.5,22.2,0.7,5.73,1.92,0.3,27.8
2015-06-28 01:00:00,0.0,1.87951,0.00044,394.484,0.131,0.8121,0.0182,140.003,45.000,34246.52335,1.89493,398.438,33.390,45.068,45.000,0.00,0.10,-272.71,-272.78,-7,987,-5,23.8,21.1,0.2,23.6,21.9,0.5,5.73,1.92,0.2,27.8
2015-06-28 01:01:00,0.0,1.87959,0.00040,394.626,0.072,0.7869,0.0112,140.000,45.000,34249.44660,1.89451,398.456,33.401,45.068,45.000,0.00,0.10,-272.72,-272.78,-7,987,-5,23.8,20.4,-0.2,23.6,21.2,0.1,5.73,1.92,0.2,27.8
2015-06-28 01:02:00,0.0,1.87948,0.00038,394.513,0.082,0.7937,0.0123,139.998,45.000,34250.25665,1.89454,398.374,33.426,45.068,45.000,0.00,0.10,-272.72,-272.78,-7,987,-5,23.8,20.7,-0.1,23.5,21.1,0.0,5.73,1.92,0.2,27.8
2015-06-28 01:03:00,0.0,1.87973,0.00050,394.594,0.048,0.7828,0.0059,140.004,45.000,34251.36644,1.89455,398.403,33.417,45.068,45.000,0.00,0.10,-272.72,-272.78,-7,987,-5,23.8,20.4,-0.3,23.6,21.1,-0.0,5.73,1.92,0.2,27.9
2015-06-28 01:04:00,0.0,1.87989,0.00025,394.555,0.054,0.7879,0.0049,139.999,45.000,34247.32865,1.89485,398.387,33.404,45.068,45.000,0.00,0.10,-272.72,-272.77,-7,987,-5,23.8,20.5,-0.2,23.6,21.1,0.0,5.73,1.92,0.2,27.8
2015-06-28 01:05:00,0.0,1.87973,0.00031,394.420,0.032,0.8011,0.0063,140.004,45.000,34249.96470,1.89493,398.320,33.397,45.068,45.000,0.00,0.10,-272.72,-272.77,-7,987,-5,23.8,20.9,0.1,23.5,21.4,0.2,5.73,1.91,0.3,27.9
2015-06-28 01:06:00,0.0,1.87951,0.00046,394.437,0.068,0.8087,0.0043,140.005,45.000,34246.43076,1.89487,398.368,33.414,45.068,45.000,0.00,0.10,-272.72,-272.78,-8,987,-5,23.8,21.0,0.2,23.5,21.7,0.4,5.73,1.91,0.3,27.8
2015-06-28 01:07:00,0.0,1.88020,0.00057,394.777,0.092,0.7729,0.0139,139.999,45.000,34245.45552,1.89485,398.540,33.396,45.068,45.000,0.00,0.10,-272.72,-272.77,-8,987,-5,23.8,20.0,-0.5,23.5,20.9,-0.1,5.73,1.91,0.3,27.8
2015-06-28 01:08:00,0.0,1.88040,0.00040,394.689,0.049,0.7766,0.0055,140.001,45.000,34245.70032,1.89511,398.467,33.399,45.068,45.000,0.00,0.10,-272.71,-272.78,-8,987,-5,23.8,20.2,-0.4,23.6,20.7,-0.2,5.73,1.91,0.3,27.9
2015-06-28 01:09:00,0.0,1.87987,0.00049,394.554,0.049,0.7954,0.0041,140.003,45.000,34247.66387,1.89494,398.421,33.397,45.068,45.000,0.00,0.10,-272.72,-272.78,-7,987,-5,23.8,20.6,-0.1,23.6,21.2,0.1,5.73,1.91,0.3,27.8
2015-06-28 01:10:00,0.0,1.88019,0.00027,394.581,0.084,0.7865,0.0067,140.000,45.000,34248.22693,1.89510,398.411,33.411,45.068,45.000,0.00,0.10,-272.72,-272.78,-7,987,-5,23.8,20.5,-0.2,23.5,21.0,-0.1,5.73,1.91,0.3,27.8
2015-06-28 01:11:00,0.0,1.87962,0.00040,394.525,0.073,0.7968,0.0064,140.002,45.000,34251.01177,1.89478,398.401,33.438,45.068,45.000,0.00,0.10,-272.71,-272.77,-7,987,-5,23.8,20.7,-0.1,23.6,21.3,0.2,5.73,1.91,0.3,27.8
2015-06-28 01:12:00,0.0,1.88034,0.00046,394.562,0.036,0.7856,0.0070,140.002,45.000,34247.98175,1.89521,398.386,33.437,45.068,45.000,0.00,0.10,-272.72,-272.78,-7,987,-5,23.8,20.4,-0.2,23.6,21.0,-0.0,5.73,1.90,0.3,27.8
2015-06-28 01:13:00,0.0,1.88014,0.00037,394.414,0.073,0.7961,0.0061,140.002,45.000,34245.35926,1.89525,398.290,33.433,45.068,45.000,0.00,0.10,-272.72,-272.79,-7,987,-5,23.8,20.7,0.0,23.6,21.2,0.1,5.73,1.90,0.3,27.8
2015-06-28 01:14:00,0.0,1.87974,0.00028,394.287,0.028,0.8086,0.0039,140.002,45.000,34246.29084,1.89508,398.220,33.439,45.068,45.000,0.00,0.10,-272.72,-272.78,-7,987,-5,23.8,21.0,0.2,23.5,21.6,0.3,5.73,1.90,0.3,27.8
2015-06-28 01:15:00,0.0,1.87973,0.00038,394.249,0.039,0.8137,0.0042,139.998,45.000,34244.27502,1.89516,398.207,33.438,45.068,45.000,0.00,0.10,-272.72,-272.78,-7,987,-5,23.8,21.2,0.3,23.6,21.7,0.4,5.73,1.90,0.3,27.8
2015-06-28 01:16:00,0.0,1.87960,0.00052,394.395,0.102,0.7974,0.0114,139.997,45.000,34244.91411,1.89475,398.273,33.438,45.068,45.000,0.00,0.10,-272.72,-272.79,-8,987,-5,23.8,20.7,-0.1,23.6,21.4,0.2,5.73,1.89,0.3,27.8
2015-06-28 01:17:00,0.0,1.88003,0.00049,394.441,0.037,0.7870,0.0052,140.000,45.000,34247.15692,1.89493,398.270,33.438,45.068,45.000,0.00,0.10,-272.72,-272.77,-8,987,-5,23.8,20.5,-0.2,23.6,21.0,-0.0,5.73,1.90,0.3,27.8
2015-06-28 01:18:00,0.0,1.88012,0.00026,394.439,0.099,0.7874,0.0116,139.999,45.000,34248.64731,1.89503,398.267,33.434,45.068,45.000,0.00,0.10,-272.72,-272.77,-8,987,-5,23.8,20.4,-0.2,23.6,21.0,-0.0,5.73,1.90,0.3,27.9
2015-06-28 01:19:00,0.0,1.87969,0.00035,394.284,0.063,0.8041,0.0045,140.000,45.000,34249.18790,1.89496,398.192,33.429,45.068,45.000,0.00,0.10,-272.72,-272.78,-8,987,-5,23.8,20.9,0.1,23.6,21.4,0.3,5.73,1.90,0.3,27.9
2015-06-28 01:20:00,0.0,1.88014,0.00050,394.309,0.095,0.8015,0.0105,139.996,45.000,34246.74400,1.89529,398.210,33.438,45.068,45.000,0.00,0.10,-272.72,-272.78,-7,988,-5,23.8,20.9,0.1,23.6,21.4,0.2,5.73,1.90,0.3,27.9
2015-06-28 01:21:00,0.0,1.87993,0.00040,394.227,0.089,0.8157,0.0111,139.998,45.000,34245.78366,1.89549,398.195,33.439,45.068,45.000,0.00,0.10,-272.71,-272.78,-7,987,-5,23.8,21.1,0.2,23.6,21.8,0.5,5.73,1.90,0.3,27.9
2015-06-28 01:22:00,0.0,1.88026,0.00053,394.371,0.046,0.7927,0.0049,139.997,45.000,34245.95907,1.89527,398.229,33.446,45.068,45.000,0.00,0.10,-272.72,-272.78,-7,987,-5,23.8,20.6,-0.1,23.6,21.2,0.1,5.73,1.91,0.3,27.9
2015-06-28 01:23:00,0.0,1.87971,0.00042,394.213,0.050,0.8063,0.0041,140.003,45.000,34248.42096,1.89502,398.135,33.442,45.068,45.000,0.00,0.10,-272.72,-272.78,-7,987,-5,23.8,21.0,0.1,23.6,21.5,0.3,5.73,1.90,0.3,27.9
2015-06-28 01:24:00,0.0,1.87957,0.00052,394.078,0.044,0.8191,0.0055,140.002,45.000,34248.78020,1.89515,398.062,33.438,45.068,45.000,0.00,0.10,-272.71,-272.77,-7,987,-5,23.8,21.3,0.3,23.6,21.9,0.5,5.73,1.91,0.3,27.8
2015-06-28 01:25:00,0.0,1.87967,0.00035,394.126,0.045,0.8150,0.0049,140.004,45.000,34249.89148,1.89514,398.093,33.438,45.068,45.000,0.00,0.10,-272.71,-272.78,-7,988,-5,23.8,21.2,0.3,23.6,21.8,0.5,5.73,1.91,0.3,27.9
2015-06-28 01:26:00,0.0,1.87926,0.00032,393.962,0.066,0.8285,0.0089,140.002,45.000,34249.40159,1.89500,397.989,33.439,45.068,45.000,0.00,0.10,-272.72,-272.78,-7,987,-5,23.8,21.6,0.5,23.6,22.0,0.7,5.73,1.92,0.3,27.8
2015-06-28 01:27:00,0.0,1.87909,0.00051,393.984,0.067,0.8271,0.0085,140.001,45.000,34248.33612,1.89473,398.010,33.439,45.068,45.000,0.00,0.10,-272.71,-272.78,-8,987,-5,23.8,21.5,0.5,23.6,22.2,0.7,5.73,1.91,0.3,27.8
2015-06-28 01:28:00,0.0,1.87972,0.00052,394.098,0.094,0.8116,0.0120,139.996,45.000,34246.10946,1.89512,398.044,33.438,45.068,45.000,0.00,0.10,-272.71,-272.78,-8,987,-5,23.9,21.1,0.2,23.6,21.8,0.5,5.73,1.91,0.3,27.9
2015-06-28 01:29:00,0.0,1.88011,0.00045,394.172,0.059,0.8020,0.0043,140.001,45.000,34245.92244,1.89536,398.074,33.438,45.068,45.000,0.00,0.10,-272.72,-272.79,-8,988,-5,23.8,20.9,0.1,23.6,21.4,0.3,5.73,1.92,0.3,27.9
2015-06-28 01:30:00,0.0,1.87943,0.00052,393.769,0.108,0.8359,0.0133,139.995,45.000,34246.95113,1.89534,397.837,33.439,45.068,45.000,0.00,0.10,-272.72,-272.78,-7,987,-5,23.8,21.8,0.7,23.6,22.1,0.7,5.73,1.92,0.3,27.9
2015-06-28 01:31:00,0.0,1.87877,0.00049,393.761,0.074,0.8363,0.0085,140.003,45.000,34252.76921,1.89464,397.829,33.450,45.068,45.000,0.00,0.10,-272.71,-272.77,-7,987,-5,23.8,21.7,0.6,23.6,22.4,0.9,5.73,1.92,0.3,27.9
2015-06-28 01:32:00,0.0,1.87912,0.00024,393.889,0.086,0.8295,0.0102,140.001,45.000,34248.45227,1.89485,397.921,33.471,45.068,45.000,0.00,0.10,-272.72,-272.78,-7,987,-5,23.8,21.6,0.5,23.6,22.2,0.8,5.73,1.92,0.3,27.9
2015-06-28 01:33:00,0.0,1.87879,0.00046,393.773,0.097,0.8363,0.0098,140.000,45.000,34248.82251,1.89471,397.840,33.497,45.068,45.000,0.00,0.10,-272.73,-272.78,-7,987,-5,23.8,21.7,0.6,23.6,22.3,0.8,5.73,1.92,0.3,27.9
2015-06-28 01:34:00,0.0,1.87930,0.00053,393.878,0.075,0.8269,0.0065,140.000,45.000,34247.68578,1.89493,397.897,33.498,45.068,45.000,0.00,0.10,-272.71,-272.77,-7,987,-5,23.8,21.4,0.4,23.6,22.1,0.7,5.73,1.92,0.3,27.9
2015-06-28 01:35:00,0.0,1.87908,0.00026,393.902,0.098,0.8183,0.0080,139.998,45.000,34247.51293,1.89465,397.881,33.500,45.068,45.000,0.00,0.10,-272.71,-272.78,-7,988,-5,23.8,21.3,0.4,23.6,21.8,0.5,5.73,1.91,0.3,27.9
2015-06-28 01:36:00,0.0,1.87885,0.00036,393.767,0.044,0.8320,0.0039,139.998,45.000,34248.14006,1.89469,397.812,33.511,45.068,45.000,0.00,0.10,-272.72,-272.78,-7,988,-5,23.8,21.6,0.6,23.6,22.2,0.7,5.73,1.91,0.3,27.9
2015-06-28 01:37:00,0.0,1.87908,0.00053,393.687,0.106,0.8396,0.0098,140.001,45.000,34250.37825,1.89497,397.770,33.507,45.068,45.000,0.00,0.10,-272.72,-272.77,-7,987,-5,23.8,21.9,0.8,23.6,22.3,0.8,5.73,1.91,0.3,27.9
2015-06-28 01:38:00,0.0,1.87919,0.00039,393.679,0.055,0.8407,0.0073,139.999,45.000,34249.19601,1.89516,397.768,33.521,45.068,45.000,0.00,0.10,-272.71,-272.77,-7,987,-5,23.8,21.8,0.7,23.6,22.5,0.9,5.73,1.91,0.3,27.9
2015-06-28 01:39:00,0.0,1.87920,0.00048,393.671,0.039,0.8410,0.0043,139.998,45.000,34248.87747,1.89517,397.759,33.503,45.068,45.000,0.00,0.10,-272.72,-272.78,-7,987,-5,23.8,21.8,0.7,23.6,22.4,0.9,5.73,1.91,0.3,27.9
2015-06-28 01:40:00,0.0,1.87901,0.00038,393.606,0.057,0.8492,0.0044,139.994,45.000,34245.79096,1.89517,397.737,33.501,45.068,45.000,0.00,0.10,-272.72,-272.78,-8,987,-5,23.8,22.1,0.9,23.6,22.6,1.0,5.73,1.91,0.3,27.9
2015-06-28 01:41:00,0.0,1.87886,0.00041,393.609,0.053,0.8482,0.0065,140.005,45.000,34251.40782,1.89495,397.733,33.500,45.068,45.000,0.00,0.10,-272.71,-272.78,-8,987,-5,23.8,22.0,0.8,23.6,22.7,1.0,5.73,1.91,0.4,27.9
2015-06-28 01:42:00,0.0,1.87911,0.00059,393.451,0.096,0.8526,0.0098,140.003,45.000,34250.58427,1.89529,397.601,33.500,45.068,45.000,0.00,0.10,-272.72,-272.78,-8,988,-5,23.9,22.2,1.0,23.6,22.8,1.1,5.73,1.90,0.3,27.8
2015-06-28 01:43:00,0.0,1.87895,0.00049,393.493,0.103,0.8509,0.0122,140.000,45.000,34249.76606,1.89517,397.629,33.499,45.068,45.000,0.00,0.10,-272.72,-272.79,-7,987,-5,23.8,22.1,0.9,23.6,22.7,1.1,5.73,1.90,0.4,27.9
2015-06-28 01:44:00,0.0,1.87885,0.00040,393.734,0.149,0.8305,0.0216,139.999,45.000,34251.22623,1.89460,397.770,33.500,45.068,45.000,0.00,0.10,-272.72,-272.77,-7,987,-5,23.9,21.5,0.5,23.6,22.3,0.8,5.73,1.90,0.4,27.9
2015-06-28 01:45:00,0.0,1.87908,0.00053,393.662,0.048,0.8348,0.0067,139.999,45.000,34250.23207,1.89491,397.719,33.494,45.068,45.000,0.00,0.10,-272.72,-272.77,-7,987,-6,23.9,21.6,0.6,23.6,22.2,0.8,5.73,1.90,0.4,27.9
2015-06-28 01:46:00,0.0,1.87945,0.00048,393.785,0.064,0.8180,0.0048,140.001,45.000,34250.91102,1.89500,397.763,33.483,45.068,45.000,0.00,0.10,-272.73,-272.78,-7,987,-5,23.9,21.2,0.4,23.6,21.9,0.5,5.73,1.90,0.3,27.9
2015-06-28 01:47:00,0.0,1.87885,0.00039,393.584,0.093,0.8350,0.0103,139.997,45.000,34250.00879,1.89468,397.639,33.495,45.068,45.000,0.00,0.10,-272.72,-272.78,-7,987,-5,23.9,21.7,0.7,23.6,22.1,0.7,5.73,1.90,0.4,27.9
2015-06-28 01:48:00,0.0,1.87919,0.00036,393.713,0.052,0.8228,0.0068,139.994,45.000,34247.41023,1.89485,397.713,33.500,45.068,45.000,0.00,0.10,-272.71,-272.77,-7,988,-6,23.9,21.3,0.4,23.6,22.0,0.6,5.73,1.90,0.4,27.9